STARLINK-11378, 62020

Orbit data source: Space-Track

STARLINK-11378, 62020 is a payload satellite owned by SpaceX/Seattle (US) in LEO that was launched on Mon, 18 Nov 2024 UTC via an FALCON 9 launch vehicle from the Air Force Western Test Range (AFWTR). Payloads include a variety of satellites, spacecraft, and rockets equipped with specific instruments for various scientific and technological missions. These include communications satellites like Starlink; space stations such as the ISS; scientific satellites like the Hubble; Earth observation satellites from companies like Planet Labs, Umbra, and HawkEye 360; GPS; miniature CubeSats for education and research; and military/defense satellites.

Loading next visibility...
STARLINK-11378 details
Identifier
62020, 2024-213N
Orbit
LEO
Last TLE update9 hours ago
Origin
Flag of USSpaceX/Seattle (US)
ManufacturerSpaceX/Seattle
MissionOperational spacecraft
Bus & MotorSTARLINK V2M, Unknown motor
Mass730 kg wet, ~700 kg dry
Launch date (UTC)
2024-11-18 (2 weeks ago)
Launch vehicle
FALCON 9
Launch site
Air Force Western Test Range (AFWTR)
Object type
Payload
Rocket body
Debris
Shape & HBRUnknown
Radar Cross SectionLarge (>1 m²)

Expand to show TLE details & history

TLE from 9 hours ago
0 STARLINK-11378
1 62020U 24213N   24337.09216480 -.00018983  00000-0 -58758-4 0  9999
2 62020  53.1614 165.7759 0001188  35.6425 324.4681 15.90178979  3147
Epoch: 2024-12-02T02:12Z
Definitive object data (Epoch: 2024-12-02T02:12:43.038Z)
Latitude-0.00003°
Longitude61.17557°
Altitude302.059 km
Speed7.728 km/s
True Right ascension11h 03m 06s
True Declination0° 00' 00"
Sunlit
Object was in daylight at TLE epoch
Visualization TLE readout
Latitude-39.24513°
Longitude-83.14466°
Altitude315.434 km
Speed7.718 km/s
Apparent Right ascension23h 02m 57s
Apparent Declination-45° 46' 22"
Sunlit
Object is in daylight
Visualization observer readout
Local Sidereal Time08:30:06
Azimuth245.355° WSW
Elevation-61.662°
Doppler factor1
Orbital elements
Apogee altitude302.838 km
Perigee altitude301.251 km
Semi-major axis6,680.181 km
Eccentricity0.0001188
Inclination53.1614°
RAAN165.7759°
Arg. of periapsis35.6425°
True anomaly324.46019°
Mean anomaly324.4681°
Eccentric anomaly324.46414°
Mean motion3.97522 °/min
BSTAR-0.000058758
Orbital period90.56 mins
Loading maneuver chart data...
Loading historical data...
Loading historical data...
Loading historical data...
Loading historical data...
Loading historical data...
Loading historical data...
Loading historical data...

STARLINK-11378 Visibility forecast

Observer location: undefined°, undefined

Span
Click to sort rows by Start time (UTC) header in descending order
Start Az.
Max El. time (UTC)
Max El. Az.
Max El.
End time (UTC)
End Az.
5 mins2024-12-02 22:18:30.220Z310.937° NW2024-12-02 22:21:30.220Z123.758° SE39.285°2024-12-02 22:23:30.220Z129.347° SE
|